This is the latest recevied weather packets stored in our database for station/object N5SRF. If no packets are shown the sender has not sent any weather packets the latest 10 day(s).
| Time | Temp. | Humidity | Pressure | Rain* | Wind** | Luminosity | Snow |
|---|---|---|---|---|---|---|---|
| 1777688864 | 12.22° C | 99% | 1019.6 hPa | 0 mm | - | 0 W/m² | - |
| 1777688257 | 12.22° C | 99% | 1019.4 hPa | 0 mm | - | 0 W/m² | - |
| 1777674318 | 13.33° C | 99% | 1017.3 hPa | 3.05 mm | - | 61 W/m² | - |
| 1777674015 | 13.89° C | 99% | 1017.5 hPa | 1.27 mm | - | 42 W/m² | - |
| 1777673107 | 13.89° C | 99% | 1016.4 hPa | 1.78 mm | - | 28 W/m² | - |
| 1777669161 | 14.44° C | 99% | 1015.6 hPa | 3.05 mm | - | 54 W/m² | - |
| 1777668858 | 14.44° C | 99% | 1015.8 hPa | 4.83 mm | - | 55 W/m² | - |
| 1777667947 | 14.44° C | 99% | 1015.6 hPa | 6.6 mm | - | 46 W/m² | - |
| 1777665825 | 14.44° C | 99% | 1015.2 hPa | 0 mm | - | 33 W/m² | - |
| 1777665524 | 14.44° C | 99% | 1015.5 hPa | 0 mm | - | 34 W/m² | - |
| 1777664606 | 14.44° C | 99% | 1015.1 hPa | 0 mm | - | 44 W/m² | - |
| 1777664001 | 14.44° C | 99% | 1014.8 hPa | 0 mm | - | 41 W/m² | - |
| 1777663698 | 14.44° C | 99% | 1015.3 hPa | 0 mm | - | 35 W/m² | - |
| 1777663092 | 14.44° C | 99% | 1014.7 hPa | 0 mm | - | 47 W/m² | - |
| 1777660965 | 14.44° C | 99% | 1013.6 hPa | 0 mm | - | 143 W/m² | - |
| 1777660661 | 14.44° C | 99% | 1013.5 hPa | 0 mm | - | 91 W/m² | - |
| 1777660358 | 14.44° C | 99% | 1013.4 hPa | 0 mm | - | 122 W/m² | - |
| 1777660054 | 15° C | 99% | 1014.2 hPa | 0 mm | - | 139 W/m² | - |
| 1777659751 | 15° C | 99% | 1013.9 hPa | 0 mm | - | 91 W/m² | - |
| 1777659448 | 15° C | 99% | 1014.3 hPa | 0 mm | - | 105 W/m² | - |
| 1777659146 | 15° C | 99% | 1014.5 hPa | 0 mm | - | 98 W/m² | - |
| 1777658843 | 15° C | 99% | 1015.1 hPa | 0 mm | - | 114 W/m² | - |
| 1777658236 | 15° C | 99% | 1015.9 hPa | 1.27 mm | - | 135 W/m² | - |
| 1777657933 | 15° C | 99% | 1016.1 hPa | 0 mm | - | 88 W/m² | - |
| 1777657024 | 15° C | 99% | 1015.8 hPa | 0 mm | - | 94 W/m² | - |
* Rain latest hour (hover to see other rain measurements)
** Current wind speed in m/s (hover to see current wind gust speed)